Weather reports worldwide

Advertisment
Chania/Souda, Greece (16746): temperature & dewpoint: 16.01.2020 00:00:00 - 22.01.2020 00:00:00 (EET)Chania/Souda, Greece (16746): wind speed: 16.01.2020 00:00:00 - 22.01.2020 00:00:00 (EET)Chania/Souda, Greece (16746): wind direction: 16.01.2020 00:00:00 - 22.01.2020 00:00:00 (EET)Chania/Souda, Greece (16746): reduced air pressure: 16.01.2020 00:00:00 - 22.01.2020 00:00:00 (EET)Chania/Souda, Greece (16746): visibility: 16.01.2020 00:00:00 - 22.01.2020 00:00:00 (EET)
Date & Time tt [°C] td [°C] ff [km/h] ff [kn] dd ppp [hPa] vv [km]
22.01.2020 00:00:00 9,0 5,0 0 0 N - 10
21.01.2020 23:00:00 8,6 4,5 8 4 NW 1033,0 10
21.01.2020 22:00:00 9,0 6,0 8 4 NNW - 10
21.01.2020 21:00:00 9,0 4,0 8 4 N - 10
21.01.2020 20:00:00 8,8 4,3 13 7 N 1034,5 10
21.01.2020 19:00:00 9,0 4,0 11 6 NNE - 10
21.01.2020 18:00:00 9,0 4,0 11 6 N - 10
21.01.2020 17:00:00 9,2 4,7 11 6 N 1034,3 10
21.01.2020 16:00:00 10,0 4,0 9 5 NNE - 10
21.01.2020 15:00:00 10,0 4,0 9 5 NE - 10
21.01.2020 14:00:00 9,8 3,9 13 7 N 1035,5 10
21.01.2020 13:00:00 9,0 5,0 11 6 N - 10
21.01.2020 12:00:00 9,0 4,0 9 5 NNE - 10
21.01.2020 11:00:00 8,8 3,2 9 5 N 1036,2 10
21.01.2020 10:00:00 8,0 2,0 15 8 N - 10
21.01.2020 09:00:00 9,0 2,0 22 12 N - 10
21.01.2020 08:00:00 8,8 4,3 18 10 N 1035,5 10
21.01.2020 07:00:00 9,0 3,0 15 8 N - 10
21.01.2020 06:00:00 9,0 3,0 15 8 N - 10
21.01.2020 05:00:00 9,4 4,5 18 10 N 1035,1 10
21.01.2020 04:00:00 10,0 4,0 15 8 N - 10
21.01.2020 03:00:00 9,0 5,0 11 6 N - 10
21.01.2020 02:00:00 8,8 4,8 11 6 N 1035,6 10
21.01.2020 01:00:00 8,0 6,0 11 6 N - 10
21.01.2020 00:00:00 9,0 4,0 18 10 N - 10
20.01.2020 23:00:00 9,4 4,5 15 8 N 1035,8 10
20.01.2020 22:00:00 9,0 5,0 15 8 N - 10
20.01.2020 21:00:00 9,0 4,0 18 10 N - 10
20.01.2020 20:00:00 9,4 3,9 18 10 N 1034,7 10
20.01.2020 19:00:00 9,0 5,0 18 10 N - 10
20.01.2020 18:00:00 9,0 7,0 22 12 NNE - 10
20.01.2020 17:00:00 9,6 6,1 18 10 NNE 1033,3 10
20.01.2020 16:00:00 10,0 5,0 22 12 NNE - 10
20.01.2020 15:00:00 11,0 4,0 18 10 N - 10
20.01.2020 14:00:00 11,0 4,3 18 10 N 1032,7 10
20.01.2020 13:00:00 11,0 5,0 16 9 NNE - 10
20.01.2020 12:00:00 10,0 5,0 15 8 NNE - 10
20.01.2020 11:00:00 10,6 5,4 21 11 NNE 1032,6 10
20.01.2020 10:00:00 10,0 6,0 22 12 NNE - 10
20.01.2020 09:00:00 10,0 5,0 13 7 N - 10
20.01.2020 08:00:00 9,2 6,2 18 10 N 1030,6 10
20.01.2020 07:00:00 10,0 6,0 9 5 N - 10
20.01.2020 06:00:00 10,0 5,0 9 5 N - 10
20.01.2020 05:00:00 10,0 5,6 9 5 N 1028,3 10
20.01.2020 04:00:00 10,0 6,0 0 0 N - 10
20.01.2020 03:00:00 10,0 6,0 9 5 N - 10
20.01.2020 02:00:00 10,0 5,6 8 4 N 1027,3 10
20.01.2020 01:00:00 10,0 6,0 0 0 N - 10
20.01.2020 00:00:00 10,0 6,0 9 5 N - 10
19.01.2020 23:00:00 10,0 5,6 0 0 N 1025,5 10
19.01.2020 22:00:00 10,0 8,0 0 0 N - 10
19.01.2020 21:00:00 10,0 7,0 8 4 N - 10
19.01.2020 20:00:00 10,0 7,9 0 0 N 1023,1 10
19.01.2020 19:00:00 10,0 8,0 0 0 N - 10
19.01.2020 18:00:00 10,0 7,0 0 0 N - 10
19.01.2020 17:00:00 10,8 7,5 8 4 NW 1021,3 10
19.01.2020 16:00:00 12,0 9,0 9 5 NNW - 10
19.01.2020 15:00:00 13,0 7,0 11 6 NW - 10
19.01.2020 14:00:00 12,6 7,3 13 7 WNW 1020,5 10
19.01.2020 13:00:00 11,0 6,0 8 4 NW - 10
19.01.2020 12:00:00 11,0 7,0 0 0 N - 10
19.01.2020 11:00:00 11,0 5,9 8 4 NNW 1020,9 10
19.01.2020 10:00:00 10,0 7,0 8 4 NNW - 10
19.01.2020 09:00:00 9,0 6,0 0 0 N - 10
19.01.2020 08:00:00 8,6 6,0 0 0 N 1020,5 10
19.01.2020 07:00:00 8,0 6,0 0 0 N - 10
19.01.2020 06:00:00 9,0 6,0 0 0 N - 10
19.01.2020 05:00:00 9,2 6,2 0 0 N 1020,5 10
19.01.2020 04:00:00 10,0 7,0 0 0 N - 10
19.01.2020 03:00:00 10,0 7,0 0 0 N - 10
19.01.2020 02:00:00 9,6 6,6 0 0 N 1020,6 10
19.01.2020 01:00:00 10,0 6,0 0 0 N - 10
19.01.2020 00:00:00 10,0 6,0 8 4 N - 10
18.01.2020 23:00:00 9,8 6,4 0 0 N 1021,3 10
18.01.2020 22:00:00 10,0 7,0 0 0 N - 10
18.01.2020 21:00:00 10,0 6,0 9 5 NNW - 10
18.01.2020 20:00:00 9,8 5,9 11 6 NNW 1020,9 10
18.01.2020 19:00:00 9,0 6,0 11 6 N - 10
18.01.2020 18:00:00 10,0 7,0 21 11 NNW - 10
18.01.2020 17:00:00 10,2 6,8 18 10 N 1020,5 10
18.01.2020 16:00:00 10,0 7,0 15 8 N - 10
18.01.2020 15:00:00 10,0 8,0 21 11 NNW - 10
18.01.2020 14:00:00 10,2 8,2 22 12 NW 1021,3 10
18.01.2020 13:00:00 10,0 8,0 24 13 NNW - 10
18.01.2020 12:00:00 10,0 7,0 24 13 NNW - 10
18.01.2020 11:00:00 10,4 7,0 26 14 NNW 1022,2 10
18.01.2020 10:00:00 10,0 8,0 22 12 NNW - 10
18.01.2020 09:00:00 9,0 8,0 24 13 NNW - 10
18.01.2020 08:00:00 9,2 7,5 26 14 NNW 1021,6 10
18.01.2020 07:00:00 9,0 7,0 26 14 NNW - 10
18.01.2020 06:00:00 9,0 7,0 22 12 NNW - 10
18.01.2020 05:00:00 9,6 7,5 18 10 NNW 1021,4 10
18.01.2020 04:00:00 9,0 7,0 15 8 NNW - 10
18.01.2020 03:00:00 9,0 7,0 11 6 NNW - 10
18.01.2020 02:00:00 9,0 7,3 15 8 NNW 1021,9 10
18.01.2020 01:00:00 9,0 7,0 15 8 NNW - 9
18.01.2020 00:00:00 9,0 8,0 11 6 NNW - 10
17.01.2020 23:00:00 8,6 7,8 15 8 NNW 1022,6 8
17.01.2020 22:00:00 9,0 7,0 11 6 NNW - 8
17.01.2020 21:00:00 9,0 7,0 18 10 NNW - 10
17.01.2020 20:00:00 9,2 7,1 18 10 N 1022,9 10
17.01.2020 19:00:00 9,0 8,0 18 10 WNW - 8
17.01.2020 18:00:00 9,0 8,0 18 10 NNW - 10
17.01.2020 17:00:00 9,2 8,0 15 8 NW 1021,6 9
17.01.2020 16:00:00 9,0 8,0 11 6 N - 8
17.01.2020 15:00:00 9,0 8,0 18 10 NW - 8
17.01.2020 14:00:00 9,0 8,2 18 10 NNW 1021,4 9
17.01.2020 13:00:00 9,0 9,0 22 12 NNW - 7
17.01.2020 12:00:00 9,0 9,0 22 12 N - 7
17.01.2020 11:00:00 9,4 8,6 18 10 N 1022,0 8
17.01.2020 10:00:00 9,0 8,0 22 12 N - 9
17.01.2020 09:00:00 9,0 8,0 15 8 N - 9
17.01.2020 08:00:00 9,8 8,2 15 8 N 1021,0 9
17.01.2020 07:00:00 11,0 8,0 18 10 N - 10
17.01.2020 06:00:00 10,0 8,0 11 6 N - 10
17.01.2020 05:00:00 11,0 7,7 11 6 N 1020,2 10
17.01.2020 04:00:00 11,0 8,0 11 6 N - 10
17.01.2020 03:00:00 11,0 8,0 15 8 N - 10
17.01.2020 02:00:00 11,4 7,3 15 8 N 1020,2 10
17.01.2020 01:00:00 11,0 8,0 11 6 N - 10
17.01.2020 00:00:00 11,0 8,0 11 6 N - 10
16.01.2020 23:00:00 11,6 7,5 11 6 N 1020,6 10
16.01.2020 22:00:00 12,0 8,0 15 8 N - 10
16.01.2020 21:00:00 12,0 8,0 11 6 N - 10
16.01.2020 20:00:00 11,6 7,5 11 6 N 1020,0 10
16.01.2020 19:00:00 12,0 8,0 15 8 N - 10
16.01.2020 18:00:00 12,0 8,0 15 8 N - 10
16.01.2020 17:00:00 11,8 8,2 18 10 N 1019,1 10
16.01.2020 16:00:00 11,0 8,0 15 8 N - 10
16.01.2020 15:00:00 12,0 9,0 11 6 N - 10
16.01.2020 14:00:00 11,6 9,2 18 10 NNE 1020,5 10
16.01.2020 13:00:00 11,0 10,0 11 6 N - 10
16.01.2020 12:00:00 12,0 10,0 15 8 NNE - 10
16.01.2020 11:00:00 12,2 9,0 11 6 NNE 1021,6 10
16.01.2020 10:00:00 12,0 8,0 21 11 N - 10
16.01.2020 09:00:00 12,0 8,0 24 13 N - 10
16.01.2020 08:00:00 12,0 8,8 26 14 N 1021,3 10
16.01.2020 07:00:00 12,0 9,0 24 13 N - 10
16.01.2020 06:00:00 12,0 9,0 22 12 NNE - 10
16.01.2020 05:00:00 12,0 8,8 16 9 NNE 1021,0 10
16.01.2020 04:00:00 12,0 9,0 16 9 N - 10
16.01.2020 03:00:00 12,0 9,0 15 8 NNE - 10
16.01.2020 02:00:00 12,0 8,8 18 10 NNE 1021,9 10
16.01.2020 01:00:00 12,0 9,0 22 12 NNE - 10
16.01.2020 00:00:00 12,0 9,0 26 14 NE - 10

tt = temperature
td = dewpoint
ff = wind speed
dd = wind direction
ppp = reduced air pressure
vv = visibility

Next stations